Regional Weather Roundup
Issued by NWS

Home | Current Version | Previous Version | Text Only | Print | Product List | Glossary Off
Versions: 1 2 3 4 5 6 7 8 9 10 11 12 13 14 15 16 17 18 19 20 21 22 23 24 25 26 27 28 29 30 31 32 33 34 35 36 37 38 39 40 41 42 43 44 45 46 47 48 49 50

000
ASUS43 KLMK 070510
RWRKY
KENTUCKY REGIONAL WEATHER ROUNDUP
NATIONAL WEATHER SERVICE LOUISVILLE KY
100 AM EDT THU MAY 07 2015

NOTE "FAIR" INDICATES FEW OR NO CLOUDS BELOW 12,000 FEET
WITH NO SIGNIFICANT WEATHER AND/OR OBSTRUCTIONS TO VISIBILITY.

KYZ001>023-026-027-061>063-070>075-070600-
WESTERN AND SOUTH CENTRAL KENTUCKY

CITY           SKY/WX    TMP DP  RH WIND       PRES   REMARKS
PADUCAH        CLEAR     67  54  63 S6        30.06S
HENDERSON      CLEAR     61  54  77 CALM      30.07S
OWENSBORO      CLEAR     69  60  73 CALM      30.09S
HOPKINSVILLE   CLEAR     67  60  77 E2        30.09S
BOWLING GREEN  MOCLDY    68  60  75 CALM      30.10S
GLASGOW        PTCLDY    62  62  99 CALM      30.11S
$$

KYZ024-025-028>034-038-045-046-053-070600-
NORTH CENTRAL KENTUCKY

CITY           SKY/WX    TMP DP  RH WIND       PRES   REMARKS
LOUISVILLE/SDF PTCLDY    73  58  59 CALM      30.10S
LOUISVILLE/LOU CLEAR     68  58  70 CALM      30.10S
FORT KNOX      CLEAR     63  57  81 CALM      30.09S
$$

KYZ035>037-039>044-047>052-055>060-089>105-070600-
NORTHEAST KENTUCKY

CITY           SKY/WX    TMP DP  RH WIND       PRES   REMARKS
LEXINGTON      PTCLDY    67  57  70 CALM      30.12S
COVINGTON      PTCLDY    66  54  65 CALM      30.12F
FRANKFORT      CLOUDY    64  57  78 CALM      30.11S
$$

KYZ054-064>069-076>088-106>120-070600-
SOUTHEAST KENTUCKY

CITY           SKY/WX    TMP DP  RH WIND       PRES   REMARKS
JACKSON        CLOUDY    71  53  52 CALM      30.15S
LONDON         PTCLDY    63  55  75 CALM      30.13S
SOMERSET       PTCLDY    59  55  88 CALM      30.14R
MIDDLESBORO    PTCLDY    60  58  94 CALM      30.15S
MONTICELLO     CLEAR     59  57  92 CALM      30.15S
$$




USA.gov is the U.S. government's official web portal to all federal, state and local government web resources and services.